Retour au catalogue

SL-14 R/B

ActifPO
NORAD 12849·ROCKET BODY·🇷🇺 Russia

Lancé Sep 21, 1981 depuis Plesetsk Cosmodrome

Loading…

Prochains Passages (prochaines 24 heures)

TLE

FraisSource: Space-Track

Époque: Sep 14, 2026, 11:16 UTC

1 12849U 81094B   26257.46951484  .00000661  00000-0  59128-4 0  9991
2 12849  82.4829  85.3931 0866509 301.9162  50.0508 13.58488380198356

Suivez SL-14 R/B en temps réel avec AllMySat

Download on the App Store